This is the latest recevied weather packets stored in our database for station/object KE6JJJ-1. If no packets are shown the sender has not sent any weather packets the latest 10 day(s).
| Time | Temp. | Humidity | Pressure | Rain* | Wind** | Luminosity | Snow |
|---|---|---|---|---|---|---|---|
| 1777736103 | 13.33° C | 85% | 1013.6 hPa | 0 mm | - | 35 W/m² | - |
| 1777734304 | 13.33° C | 85% | 1013.5 hPa | 0 mm | - | 30 W/m² | - |
| 1777732504 | 12.78° C | 86% | 1013.2 hPa | 0 mm | - | 28 W/m² | - |
| 1777730714 | 12.78° C | 86% | 1013.2 hPa | 0 mm | - | 14 W/m² | - |
| 1777728903 | 12.78° C | 86% | 1012.8 hPa | 0 mm | - | 5 W/m² | - |
| 1777727103 | 12.78° C | 85% | 1012.5 hPa | 0 mm | - | 0 W/m² | - |
| 1777725303 | 12.78° C | 85% | 1012.4 hPa | 0 mm | - | 0 W/m² | - |
| 1777723504 | 12.78° C | 85% | 1012.4 hPa | 0 mm | - | 0 W/m² | - |
| 1777721712 | 12.78° C | 85% | 1012.4 hPa | 0 mm | - | 0 W/m² | - |
| 1777718111 | 12.78° C | 86% | 1012.7 hPa | 0 mm | - | 0 W/m² | - |
| 1777716309 | 12.78° C | 86% | 1012.9 hPa | 0 mm | - | 0 W/m² | - |
| 1777714503 | 12.78° C | 86% | 1013.1 hPa | 0 mm | - | 0 W/m² | - |
| 1777712708 | 12.22° C | 86% | 1013.5 hPa | 0 mm | - | 0 W/m² | - |
| 1777710903 | 12.22° C | 86% | 1013.5 hPa | 0 mm | - | 0 W/m² | - |
| 1777707311 | 12.78° C | 86% | 1013.7 hPa | 0 mm | - | 0 W/m² | - |
| 1777705504 | 12.78° C | 86% | 1013.7 hPa | 0 mm | - | 0 W/m² | - |
| 1777703703 | 12.78° C | 86% | 1013.8 hPa | 0 mm | - | 0 W/m² | - |
| 1777701903 | 12.78° C | 86% | 1013.8 hPa | 0 mm | - | 0 W/m² | - |
| 1777700103 | 12.78° C | 86% | 1013.8 hPa | 0 mm | - | 0 W/m² | - |
| 1777698304 | 12.78° C | 86% | 1013.8 hPa | 0 mm | - | 0 W/m² | - |
| 1777696504 | 12.78° C | 86% | 1013.7 hPa | 0 mm | - | 0 W/m² | - |
| 1777694703 | 12.78° C | 85% | 1013.5 hPa | 0 mm | - | 0 W/m² | - |
| 1777692903 | 12.78° C | 85% | 1013 hPa | 0 mm | - | 0 W/m² | - |
| 1777691196 | 12.78° C | 84% | 1012.8 hPa | 0 mm | - | 0 W/m² | - |
| 1777689303 | 13.33° C | 84% | 1012.5 hPa | 0 mm | - | 11 W/m² | - |
* Rain latest hour (hover to see other rain measurements)
** Current wind speed in m/s (hover to see current wind gust speed)